Syracuse, NY

5:49 AM EST on November 15, 2019 (GMT -0500)
Syracuse Hancock International

Weather History for KSYR - September, 2019

Change the Weather History Date:

Wednesday, September 4, 2019

  Actual Average Record
Temperature  
Mean Temperature 68 °F 66 °F  
Max Temperature 77 °F 77 °F 97 °F (1953)
Min Temperature 58 °F 56 °F 36 °F (1946)
Degree Days  
Heating Degree Days 0 2  
Month to date heating degree days 3 7  
Since 1 July heating degree days 8 33  
Cooling Degree Days 2 3  
Month to date cooling degree days 5 13  
Year to date cooling degree days 573 526  
Growing Degree Days 18 (Base 50)    
Moisture  
Dew Point 60 °F    
Average Humidity 70    
Maximum Humidity 81    
Minimum Humidity 59    
Precipitation  
Precipitation 0.12 in 0.11 in 2.07 in (1966)
Month to date precipitation 1.63 0.47  
Year to date precipitation 32.27 25.06  
Snow  
Snow 0.00 in 0.00 in 0.00 in (2002)
Month to date snowfall 0.0 0.0  
Since 1 July snowfall T 0.0  
Since 1 September snowfall 0.0 0.0  
Snow Depth 0.00 in    
Sea Level Pressure  
Sea Level Pressure 29.85 in    
Wind  
Wind Speed 13 mph ()    
Max Wind Speed 22 mph    
Max Gust Speed 30 mph    
Visibility 9.6 miles    
Events Rain , Thunderstorm    
T = Trace of Precipitation, MM = Missing Value Source: Averaged Metar Reports

Daily Weather History Graph

Daily Weather History Graph

Search for Another Location

Airport or City:

Astronomy

Sep. 04, 2019 Rise Set
Actual Time 6:31 AM EDT 7:34 PM EDT
Civil Twilight 6:02 AM EDT 8:03 PM EDT
Nautical Twilight 5:27 AM EDT 8:38 PM EDT
Astronomical Twilight 4:51 AM EDT 9:14 PM EDT
Moon 12:39 PM EDT (9/4) 10:57 PM EDT (9/4)
Length of Visible Light 14h 00m
Length of Day
13h 02m
Waxing Crescent, 34% of the Moon is Illuminated
Sep 4
Waxing Crescent
Sep 5
First Quarter
Sep 14
Full
Sep 21
Last Quarter
Sep 28
New

Hourly Weather History & Observations

Time (EDT) Temp. Dew Point Humidity Pressure Visibility Wind Dir Wind Speed Gust Speed Precip Events Conditions
12:54 AM 73.9 °F 60.1 °F 62% 29.84 in 10.0 mi South 17.3 mph 24.2 mph N/A   Overcast
1:54 AM 73.9 °F 59.0 °F 59% 29.80 in 10.0 mi South 13.8 mph 25.3 mph N/A   Mostly Cloudy
2:54 AM 73.9 °F 59.0 °F 59% 29.78 in 10.0 mi SSW 18.4 mph 24.2 mph N/A   Overcast
3:02 AM 73.9 °F 60.1 °F 62% 29.81 in 10.0 mi SSW 19.6 mph 25.3 mph 0.00 in Rain , Thunderstorm Light Thunderstorms and Rain
3:54 AM 69.1 °F 62.1 °F 78% 29.77 in 10.0 mi South 11.5 mph - 0.02 in Rain , Thunderstorm Light Thunderstorms and Rain
3:58 AM 70.0 °F 62.1 °F 76% 29.79 in 10.0 mi South 12.7 mph - 0.00 in Rain Light Rain
4:17 AM 70.0 °F 62.1 °F 76% 29.80 in 10.0 mi SSW 12.7 mph - 0.00 in Thunderstorm Thunderstorm
4:46 AM 70.0 °F 62.1 °F 76% 29.78 in 10.0 mi South 10.4 mph - 0.01 in Rain Light Rain
4:54 AM 70.0 °F 62.1 °F 76% 29.77 in 10.0 mi South 9.2 mph - 0.01 in Rain Light Rain
5:54 AM 71.1 °F 61.0 °F 70% 29.75 in 10.0 mi South 12.7 mph - 0.00 in   Mostly Cloudy
6:54 AM 71.1 °F 61.0 °F 70% 29.75 in 10.0 mi South 12.7 mph - N/A   Mostly Cloudy
7:17 AM 73.0 °F 61.0 °F 66% 29.78 in 10.0 mi SSW 13.8 mph 19.6 mph N/A Thunderstorm Thunderstorm
7:38 AM 71.1 °F 63.0 °F 75% 29.77 in 2.0 mi South 17.3 mph 26.5 mph 0.06 in Rain , Thunderstorm Thunderstorms and Rain
7:43 AM 70.0 °F 63.0 °F 78% 29.77 in 7.0 mi South 15.0 mph - 0.09 in Rain , Thunderstorm Light Thunderstorms and Rain
7:49 AM 69.8 °F 62.6 °F 78% 29.77 in 9.0 mi South 10.4 mph 21.9 mph 0.09 in Rain , Thunderstorm Light Thunderstorms and Rain
7:54 AM 70.0 °F 63.0 °F 78% 29.76 in 10.0 mi South 8.1 mph - 0.09 in Rain , Thunderstorm Light Thunderstorms and Rain
8:07 AM 70.0 °F 64.0 °F 81% 29.78 in 10.0 mi South 6.9 mph - 0.00 in   Mostly Cloudy
8:54 AM 73.9 °F 64.0 °F 71% 29.77 in 10.0 mi SSW 19.6 mph 23.0 mph 0.00 in   Mostly Cloudy
9:54 AM 75.0 °F 64.9 °F 71% 29.79 in 10.0 mi WSW 15.0 mph 26.5 mph 0.00 in Rain Light Rain
10:31 AM 73.9 °F 64.9 °F 73% 29.82 in 10.0 mi West 12.7 mph - 0.00 in Thunderstorm Thunderstorm
10:54 AM 73.0 °F 63.0 °F 71% 29.81 in 10.0 mi West 17.3 mph 26.5 mph 0.00 in   Mostly Cloudy
11:54 AM 75.0 °F 62.1 °F 64% 29.84 in 10.0 mi WNW 17.3 mph 23.0 mph N/A   Mostly Cloudy
12:54 PM 75.0 °F 61.0 °F 62% 29.85 in 10.0 mi West 16.1 mph 23.0 mph N/A   Mostly Cloudy
1:54 PM 72.0 °F 60.1 °F 66% 29.87 in 10.0 mi WNW 17.3 mph - N/A   Mostly Cloudy
2:54 PM 73.9 °F 60.1 °F 62% 29.89 in 10.0 mi NW 16.1 mph 25.3 mph N/A   Mostly Cloudy
3:54 PM 69.1 °F 57.0 °F 65% 29.92 in 10.0 mi WNW 15.0 mph 25.3 mph N/A   Overcast
4:54 PM 70.0 °F 55.9 °F 61% 29.94 in 10.0 mi WNW 13.8 mph - N/A   Mostly Cloudy
5:54 PM 68.0 °F 54.0 °F 61% 29.96 in 10.0 mi West 17.3 mph - N/A   Mostly Cloudy
6:54 PM 66.9 °F 54.0 °F 63% 30.00 in 10.0 mi WNW 19.6 mph 25.3 mph N/A   Mostly Cloudy
7:54 PM 64.0 °F 53.1 °F 67% 30.03 in 10.0 mi West 11.5 mph - N/A   Mostly Cloudy
8:54 PM 63.0 °F 54.0 °F 72% 30.04 in 10.0 mi West 8.1 mph - N/A   Mostly Cloudy
9:54 PM 62.1 °F 54.0 °F 75% 30.06 in 10.0 mi West 6.9 mph - N/A   Overcast
10:54 PM 63.0 °F 55.0 °F 75% 30.07 in 10.0 mi West 6.9 mph - N/A   Overcast
11:54 PM 62.1 °F 55.0 °F 78% 30.07 in 10.0 mi West 6.9 mph - N/A   Overcast